Regional Weather Roundup
Issued by NWS Newport/Morehead, NC

Current Version | Previous Version | Graphics & Text | Print | Product List | Glossary Off
Versions: 1 2 3 4 5 6 7 8 9 10 11 12 13 14 15 16 17 18 19 20 21 22 23 24 25 26 27 28 29 30 31 32 33 34 35 36 37 38 39 40 41 42 43 44 45 46 47 48 49 50

000
ASUS42 KMHX 300313
RWRMHX
WEATHER ROUNDUP FOR EASTERN NORTH CAROLINA
NATIONAL WEATHER SERVICE NEWPORT/MOREHEAD CITY NC
1100 PM EDT SUN MAY 29 2016

NOTE: "FAIR" INDICATES FEW OR NO CLOUDS BELOW 12,000 FEET
WITH NO SIGNIFICANT WEATHER AND/OR OBSTRUCTIONS TO VISIBILITY

NCZ015>017-031-032-045>047-102-103-300400-
NORTH COAST

CITY           SKY/WX    TMP DP  RH WIND       PRES   REMARKS
EDENTON        CLOUDY   N/A N/A N/A SE5       30.05S
ELIZABETH CITY CLOUDY    75  72  90 SE6       30.05F
KITTY HAWK     LGT RAIN  73  70  90 SE3       30.06S
MANTEO         NOT AVBL

$$

NCZ045>047-081-094-103-104-300400-
CENTRAL COAST

CITY           SKY/WX    TMP DP  RH WIND       PRES   REMARKS
FRISCO         LGT RAIN  74  73  97 S3        30.06S

$$

NCZ095-097-098-100-101-300400-
SOUTHERN COAST

CITY           SKY/WX    TMP DP  RH WIND       PRES   REMARKS
BEAUFORT       MOCLDY    76  73  91 S7        30.03S
CEDAR ISLAND   NOT AVBL
JACKSONVILLE   CLOUDY    75  72  90 SE8       30.01S
PINEY ISLAND   CLOUDY   N/A N/A N/A S5        30.04
WILMINGTON     CLOUDY    74  72  93 E3        30.00S


$$

NCZ011>013-027>030-043-044-078>080-089-090>093-098-300400-
COASTAL PLAIN

CITY           SKY/WX    TMP DP  RH WIND       PRES   REMARKS
AHOSKIE        CLOUDY    73  71  92 SE3       30.05R
CLINTON        MOCLDY    73  73  99 CALM      30.02S
ELIZABETHTOWN  PTCLDY    72  71  98 CALM      30.00S
GOLDSBORO      NOT AVBL
GREENVILLE     CLEAR     73  72  94 SE3       30.05S
HAVELOCK       RAIN      75  72  90 SE6       30.04S
KENANSVILLE    CLOUDY    73  72  98 CALM      30.03S
KINSTON        PTCLDY    75  72  91 E3        30.04R
NEW BERN       CLOUDY    75  71  87 SE6       30.04S
RICHLANDS      CLOUDY    73  73 100 E3        30.02S
ROCKY MOUNT    MOCLDY    75  71  87 SE3       30.03S
WASHINGTON     CLOUDY    73  71  92 E5        30.03F
WHITEVILLE     MOCLDY    73  70  91 CALM      29.98S

$$

AMZ130-135-150-152-154-156-158-170-250-252-270-ANZ085-086-088-633-658-670-300400-
MARINE OBSERVATIONS

STATION/POSITION TIME  TEMP    WIND        PRES    WAVE   SWELL
                       AIR SEA DIR/SP/G            HT/PER HT/PER
                 (UTC) (F)     (DEG/KT/KT) (MB)    (FT/S) (FT/S)
CHESAPEAKE LIGHT 0200   71     150/ 18/ 19 1018.4
64 E VA BEACH    0250   71 64  170/ 10/ 12 1018.6    4/ 6   3/ 6
DUCK             0200   67 60                N/A
2 E DUCK         0211      64                N/A     3/ 7
OREGON INLET     0200   75 80                N/A
13E OREGON INLT  0300      69                N/A     5/ 6   5/ 6
HATTERAS CG      0200   75 78                N/A
DIAMOND BUOY     0250   79 82  160/ 19/ 23 1017.4    6/ 8   2/21
CAPE LOOKOUT     0300   76     140/  8/  9 1016.6
BEAUFORT LAB     0200   76 77                N/A
30 SE NEW RVR IN 0225      75                N/A     6/ 7
27 SE WRIGHTSVLE 0208   78 76  150/ 14/ 17 1015.8
5 SE WRIGHTSVLE  0208   76 76  140/  6/ 10 1016.4
225 S CAPE HAT   0250   75 76  120/ 14/ 17 1017.9    5/ 8   3/ 8
41 SE CHARLESTON 0250   73 78  170/ 16/ 19 1013.2    6/ 6   2/14

$$




USA.gov is the U.S. government's official web portal to all federal, state and local government web resources and services.